Погода в Кинеле

Россия / Самарская область     53°13′15″N   50°38′03″E
темп.,
°C
ветер,
м/с
пор.,
м/с
влажн.,
%
обл.,
%
осадки,
мм/ч
давл.,
гПа
погр.,
м
21 апреля, ср
ср2101:00+4юв71548100 0.0 1027562
04:00+3юв71549100 0.0 1027652
07:00+4юв81649100 0.0 1026733
10:00+6юв91645100 0.0 1027831
13:00+6юв81648100 0.1 1026772
16:00+5ююв71566100 1.1 1027965
19:00+4ююв71681100 2.5 1026930
22:00+4ююв71586100 4.4 1025805
22 апреля, чт
чт2201:00+4ююв61393100 3.6 1025729
04:00+5ю61293100 5.8 1026691
07:00+5ююв41088100 1.9 1027566
10:00+6ююв51079100 2.1 1027456
13:00+6ююв4887100 0.0 1028589
16:00+6ююв6885100 0.1 1028509
19:00+5ююв4989100 0.0 1028488
22:00+5юв4793100 0.0 1028510
23 апреля, пт
пт2301:00+5юв3694100 0.0 1027402
04:00+4вюв3596100 0.0 1027254
07:00+5в349498 0.0 1027221
10:00+8всв4481100 0.0 1026526
13:00+11в4470100 0.0 1025862
16:00+13всв4561100 0.0 10231050
19:00+11св4674100 0.0 1022163
22:00+9юв2276100 0.0 102134
24 апреля, сб
сб2401:00+8юв3693100 0.4 1019406
04:00+8всв3592100 2.8 1018262
07:00+7всв4794100 1.1 1016444
10:00+8всв3593100 1.5 1015327
13:00+8вюв1188100 0.4 1015258
16:00+8вюв1187100 0.6 1014283
19:00+7юв1192100 0.1 101444
22:00+7ююв2495100 0.1 101495
25 апреля, вс
вс2501:00+7юв3791100 0.0 1012182
04:00+8ю5129698 1.0 1011491
07:00+7зюз611810 0.3 1013621
10:00+9зюз710595 0.3 10151224
13:00+11юз81055100 0.3 10151788
16:00+12юз8115789 1.3 10151695
19:00+10юз4860100 0.1 1016287
22:00+8ююз2272100 0.2 101622